• In Uzbekistan
  • List of Countries
  • For 7 days
  • Water Temperature
  • Satellite Maps
  • Weather Map
  • Weather Widgets
  • user-avatar
    Login

    Hourly Weather Newport

    Today, 23 October, Monday

    Time Temperature Precipitation Wind Pressure Humidity
    00:00 +10°C° 0 mm 5 mps 761 mmHg 93%
    01:00 +11°C° 0.4 mm 6 mps 761 mmHg 94%
    02:00 +11°C° 0.4 mm 6 mps 760 mmHg 94%
    03:00 +11°C° 0.4 mm 6 mps 760 mmHg 95%
    04:00 +13°C° 0.3 mm 6 mps 760 mmHg 95%
    05:00 +13°C° 0.3 mm 6 mps 760 mmHg 96%
    06:00 +13°C° 0 mm 6 mps 759 mmHg 96%
    07:00 +14°C° 0.2 mm 5 mps 759 mmHg 96%
    08:00 +14°C° 0.2 mm 5 mps 759 mmHg 97%
    09:00 +14°C° 0.2 mm 5 mps 759 mmHg 97%
    10:00 +15°C° 0.1 mm 5 mps 759 mmHg 96%
    11:00 +15°C° 0.1 mm 5 mps 760 mmHg 95%
    12:00 +16°C° 0.1 mm 6 mps 760 mmHg 95%
    13:00 +16°C° 0 mm 6 mps 760 mmHg 94%
    14:00 +16°C° 0 mm 6 mps 760 mmHg 92%
    15:00 +16°C° 0 mm 6 mps 760 mmHg 91%
    16:00 +15°C° 0 mm 5 mps 760 mmHg 93%
    17:00 +15°C° 0 mm 5 mps 760 mmHg 95%
    18:00 +14°C° 0 mm 4 mps 760 mmHg 96%
    19:00 +15°C° 0.1 mm 5 mps 760 mmHg 97%
    20:00 +15°C° 0.1 mm 5 mps 760 mmHg 97%
    21:00 +15°C° 0.1 mm 5 mps 761 mmHg 97%
    22:00 +15°C° 0.1 mm 5 mps 760 mmHg 97%
    23:00 +15°C° 0.1 mm 5 mps 760 mmHg 97%

    Tomorrow, 24 October, Tuesday

    Time Temperature Precipitation Wind Pressure Humidity
    00:00 +15°C° 0.1 mm 5 mps 760 mmHg 97%
    01:00 +15°C° 0.8 mm 6 mps 760 mmHg 97%
    02:00 +16°C° 0.8 mm 6 mps 760 mmHg 97%
    03:00 +16°C° 0.8 mm 7 mps 760 mmHg 96%
    04:00 +16°C° 0.8 mm 8 mps 759 mmHg 96%
    05:00 +16°C° 0.8 mm 9 mps 759 mmHg 95%
    06:00 +16°C° 0.8 mm 10 mps 759 mmHg 94%
    07:00 +16°C° 0.5 mm 10 mps 759 mmHg 94%
    08:00 +16°C° 0.5 mm 10 mps 760 mmHg 94%
    09:00 +16°C° 0.5 mm 10 mps 760 mmHg 94%
    10:00 +16°C° 0.4 mm 9 mps 760 mmHg 94%
    11:00 +16°C° 0.4 mm 9 mps 760 mmHg 94%
    12:00 +16°C° 0.4 mm 9 mps 760 mmHg 94%
    13:00 +16°C° 0.5 mm 9 mps 760 mmHg 93%
    14:00 +16°C° 0.5 mm 9 mps 760 mmHg 93%
    15:00 +16°C° 0.5 mm 9 mps 759 mmHg 93%
    16:00 +16°C° 0.2 mm 9 mps 759 mmHg 93%
    17:00 +16°C° 0.2 mm 10 mps 759 mmHg 92%
    18:00 +16°C° 0.2 mm 10 mps 759 mmHg 92%
    19:00 +16°C° 0.1 mm 10 mps 759 mmHg 92%
    20:00 +16°C° 0.1 mm 10 mps 759 mmHg 93%
    21:00 +16°C° 0.1 mm 10 mps 760 mmHg 93%
    22:00 +15°C° 0.3 mm 9 mps 760 mmHg 93%
    23:00 +15°C° 0.3 mm 8 mps 760 mmHg 93%

    Day after tomorrow, 25 October, Wednesday

    Time Temperature Precipitation Wind Pressure Humidity
    00:00 +15°C° 0.3 mm 7 mps 760 mmHg 93%
    01:00 +14°C° 0 mm 6 mps 761 mmHg 93%
    02:00 +13°C° 0 mm 5 mps 761 mmHg 94%
    03:00 +12°C° 0 mm 4 mps 762 mmHg 94%
    04:00 +11°C° 0 mm 4 mps 762 mmHg 94%
    05:00 +11°C° 0 mm 3 mps 762 mmHg 95%
    06:00 +10°C° 0 mm 3 mps 763 mmHg 95%
    07:00 +11°C° 0 mm 3 mps 763 mmHg 94%
    08:00 +12°C° 0 mm 3 mps 764 mmHg 92%
    09:00 +12°C° 0 mm 3 mps 764 mmHg 91%
    10:00 +13°C° 0 mm 3 mps 764 mmHg 87%
    11:00 +14°C° 0 mm 3 mps 764 mmHg 83%
    12:00 +16°C° 0 mm 3 mps 764 mmHg 79%
    13:00 +16°C° 0 mm 3 mps 764 mmHg 79%
    14:00 +16°C° 0 mm 2 mps 764 mmHg 79%
    15:00 +16°C° 0 mm 2 mps 764 mmHg 80%
    16:00 +16°C° 0.1 mm 2 mps 764 mmHg 83%
    17:00 +15°C° 0.1 mm 2 mps 764 mmHg 86%
    18:00 +14°C° 0.1 mm 2 mps 764 mmHg 89%
    19:00 +14°C° 0.3 mm 2 mps 764 mmHg 90%
    20:00 +14°C° 0.3 mm 2 mps 764 mmHg 91%
    21:00 +14°C° 0.3 mm 2 mps 764 mmHg 92%
    22:00 +14°C° 0 mm 2 mps 765 mmHg 93%
    23:00 +14°C° 0 mm 3 mps 765 mmHg 94%

    26 October, Thursday

    Time Temperature Precipitation Wind Pressure Humidity
    00:00 +14°C° 0 mm 3 mps 765 mmHg 94%
    01:00 +14°C° 0.1 mm 3 mps 765 mmHg 95%
    02:00 +14°C° 0.1 mm 3 mps 765 mmHg 96%
    03:00 +14°C° 0.1 mm 3 mps 765 mmHg 97%
    04:00 +14°C° 0.1 mm 3 mps 765 mmHg 97%
    05:00 +14°C° 0.1 mm 3 mps 765 mmHg 97%
    06:00 +13°C° 0.1 mm 3 mps 765 mmHg 97%
    07:00 +14°C° 0 mm 3 mps 765 mmHg 96%
    08:00 +14°C° 0 mm 3 mps 766 mmHg 95%
    09:00 +16°C° 0 mm 3 mps 766 mmHg 94%
    10:00 +16°C° 0 mm 3 mps 766 mmHg 92%
    11:00 +16°C° 0 mm 3 mps 767 mmHg 90%
    12:00 +17°C° 0 mm 3 mps 767 mmHg 88%
    13:00 +17°C° 0 mm 3 mps 767 mmHg 88%
    14:00 +17°C° 0 mm 2 mps 767 mmHg 88%
    15:00 +17°C° 0 mm 2 mps 767 mmHg 88%
    16:00 +16°C° 0 mm 2 mps 767 mmHg 91%
    17:00 +15°C° 0 mm 1 mps 767 mmHg 93%
    18:00 +14°C° 0 mm 1 mps 767 mmHg 96%
    19:00 +14°C° 0 mm 1 mps 767 mmHg 96%
    20:00 +13°C° 0 mm 0 mps 768 mmHg 96%
    21:00 +12°C° 0 mm 0 mps 768 mmHg 96%
    22:00 +12°C° 0 mm 0 mps 768 mmHg 96%
    23:00 +13°C° 0 mm 1 mps 768 mmHg 96%

    27 October, Friday

    Time Temperature Precipitation Wind Pressure Humidity
    00:00 +13°C° 0 mm 1 mps 768 mmHg 96%
    01:00 +13°C° 0 mm 1 mps 768 mmHg 96%
    02:00 +13°C° 0 mm 1 mps 768 mmHg 96%
    03:00 +12°C° 0 mm 2 mps 768 mmHg 96%
    04:00 +12°C° 0 mm 2 mps 768 mmHg 96%
    05:00 +12°C° 0 mm 2 mps 768 mmHg 96%
    06:00 +12°C° 0 mm 2 mps 769 mmHg 96%
    07:00 +13°C° 0 mm 2 mps 769 mmHg 94%
    08:00 +13°C° 0 mm 2 mps 770 mmHg 92%
    09:00 +13°C° 0 mm 3 mps 770 mmHg 90%
    10:00 +13°C° 0 mm 3 mps 771 mmHg 84%
    11:00 +15°C° 0 mm 2 mps 771 mmHg 79%
    12:00 +16°C° 0 mm 2 mps 772 mmHg 74%
    13:00 +15°C° 0 mm 2 mps 772 mmHg 73%
    14:00 +15°C° 0 mm 1 mps 772 mmHg 73%
    15:00 +15°C° 0 mm 1 mps 772 mmHg 73%
    16:00 +14°C° 0 mm 1 mps 772 mmHg 78%
    17:00 +12°C° 0 mm 1 mps 772 mmHg 82%
    18:00 +10°C° 0 mm 2 mps 772 mmHg 87%
    19:00 +10°C° 0 mm 2 mps 773 mmHg 88%
    20:00 +9°C° 0 mm 2 mps 773 mmHg 88%
    21:00 +9°C° 0 mm 2 mps 774 mmHg 89%
    22:00 +8°C° 0 mm 2 mps 774 mmHg 89%
    23:00 +9°C° 0 mm 1 mps 774 mmHg 89%

    28 October, Saturday

    Time Temperature Precipitation Wind Pressure Humidity
    00:00 +9°C° 0 mm 1 mps 774 mmHg 88%
    01:00 +9°C° 0 mm 1 mps 773 mmHg 88%
    02:00 +8°C° 0 mm 1 mps 773 mmHg 88%
    03:00 +8°C° 0 mm 1 mps 773 mmHg 87%
    04:00 +8°C° 0 mm 1 mps 773 mmHg 87%
    05:00 +8°C° 0 mm 1 mps 773 mmHg 86%
    06:00 +7°C° 0 mm 2 mps 773 mmHg 86%
    07:00 +8°C° 0 mm 2 mps 773 mmHg 84%
    08:00 +9°C° 0 mm 2 mps 774 mmHg 81%
    09:00 +10°C° 0 mm 2 mps 774 mmHg 79%
    10:00 +12°C° 0 mm 2 mps 774 mmHg 75%
    11:00 +13°C° 0 mm 2 mps 774 mmHg 71%
    12:00 +14°C° 0 mm 2 mps 774 mmHg 67%
    13:00 +14°C° 0 mm 2 mps 773 mmHg 69%
    14:00 +13°C° 0 mm 3 mps 773 mmHg 71%
    15:00 +13°C° 0 mm 3 mps 772 mmHg 74%
    16:00 +11°C° 0 mm 3 mps 772 mmHg 78%
    17:00 +10°C° 0 mm 3 mps 773 mmHg 83%
    18:00 +8°C° 0 mm 3 mps 773 mmHg 88%
    19:00 +8°C° 0 mm 2 mps 773 mmHg 88%
    20:00 +8°C° 0 mm 2 mps 773 mmHg 87%
    21:00 +8°C° 0 mm 2 mps 773 mmHg 87%
    22:00 +8°C° 0 mm 2 mps 773 mmHg 88%
    23:00 +8°C° 0 mm 2 mps 773 mmHg 89%

    29 October, Sunday

    Time Temperature Precipitation Wind Pressure Humidity
    00:00 +8°C° 0 mm 2 mps 773 mmHg 89%
    01:00 +9°C° 0 mm 3 mps 772 mmHg 92%
    02:00 +9°C° 0 mm 3 mps 772 mmHg 94%
    03:00 +10°C° 0 mm 3 mps 771 mmHg 96%
    04:00 +10°C° 0 mm 3 mps 771 mmHg 95%
    05:00 +10°C° 0 mm 4 mps 771 mmHg 95%
    06:00 +11°C° 0 mm 4 mps 771 mmHg 95%
    07:00 +10°C° 0 mm 5 mps 771 mmHg 94%
    08:00 +12°C° 0 mm 5 mps 771 mmHg 93%
    09:00 +11°C° 0 mm 6 mps 771 mmHg 92%
    10:00 +13°C° 0 mm 6 mps 770 mmHg 91%
    11:00 +13°C° 0 mm 6 mps 770 mmHg 89%
    12:00 +12°C° 0 mm 7 mps 770 mmHg 88%
    13:00 +12°C° 0 mm 7 mps 770 mmHg 87%
    14:00 +12°C° 0 mm 7 mps 769 mmHg 86%
    15:00 +14°C° 0 mm 7 mps 769 mmHg 85%
    16:00 +12°C° 0 mm 7 mps 769 mmHg 87%
    17:00 +12°C° 0 mm 7 mps 769 mmHg 88%
    18:00 +11°C° 0 mm 7 mps 768 mmHg 90%
    19:00 +11°C° 0 mm 7 mps 769 mmHg 89%
    20:00 +11°C° 0 mm 7 mps 769 mmHg 88%
    21:00 +11°C° 0 mm 7 mps 769 mmHg 87%
    22:00 +10°C° 0 mm 7 mps 769 mmHg 88%
    23:00 +9°C° 0 mm 6 mps 769 mmHg 88%
    Show more